Mountain Home, AR

7:22 PM CST on November 13, 2019 (GMT -0600)
Baxter County Regional

Weather History for KBPK - October, 2019

Change the Weather History Date:

Monday, October 21, 2019

  Actual Average (KFLP) Record (KFLP)
Temperature  
Mean Temperature 62 °F -  
Max Temperature 71 °F 69 °F 84 °F (2003)
Min Temperature 53 °F 46 °F 30 °F (2011)
Degree Days  
Heating Degree Days 3    
Growing Degree Days 12 (Base 50)    
Moisture  
Dew Point 50 °F    
Average Humidity 74    
Maximum Humidity 100    
Minimum Humidity 33    
Precipitation  
Precipitation 0.37 in - - ()
Sea Level Pressure  
Sea Level Pressure 29.70 in    
Wind  
Wind Speed 8 mph (West)    
Max Wind Speed 15 mph    
Max Gust Speed 30 mph    
Visibility 9 miles    
Events Rain , Thunderstorm    
Averages and records for this station are not official NWS values.
T = Trace of Precipitation, MM = Missing Value Source: NWS Daily Summary

Daily Weather History Graph

Daily Weather History Graph

Search for Another Location

Airport or City:

Astronomy

Oct. 21, 2019 Rise Set
Actual Time 7:22 AM CDT 6:26 PM CDT
Civil Twilight 6:56 AM CDT 6:52 PM CDT
Nautical Twilight 6:26 AM CDT 7:22 PM CDT
Astronomical Twilight 5:56 AM CDT 7:52 PM CDT
Moon No Moon Rise 2:34 PM CDT (10/21)
Length of Visible Light 11h 56m
Length of Day
11h 03m
Waning Gibbous, 48% of the Moon is Illuminated
Oct 21
Waning Gibbous
Oct 27
New
Nov 4
First Quarter
Nov 12
Full
Nov 19
Last Quarter

Hourly Weather History & Observations

Time (CDT) Temp. Dew Point Humidity Pressure Visibility Wind Dir Wind Speed Gust Speed Precip Events Conditions
12:53 AM 66.9 °F 64.0 °F 90% 29.54 in 10.0 mi SSE 10.4 mph - N/A   Mostly Cloudy
1:53 AM 70.0 °F 68.0 °F 93% 29.52 in 4.0 mi SSW 15.0 mph 21.9 mph 0.08 in Rain , Thunderstorm Rain
2:18 AM 64.9 °F 63.0 °F 93% 29.66 in 10.0 mi NNW 15.0 mph 29.9 mph 0.00 in   Mostly Cloudy
2:29 AM 59.0 °F 57.9 °F 96% 29.67 in 4.0 mi NW 9.2 mph 24.2 mph 0.08 in Rain Heavy Rain
2:37 AM 59.0 °F 57.9 °F 96% 29.70 in 5.0 mi North - - 0.11 in Rain Heavy Rain
2:41 AM 59.0 °F 57.9 °F 96% 29.68 in 4.0 mi North - - 0.14 in Rain , Thunderstorm Thunderstorms and Rain
2:48 AM 57.2 °F 57.2 °F 100% 29.68 in 4.0 mi Calm Calm - 0.15 in Rain , Thunderstorm Thunderstorms and Rain
2:53 AM 57.9 °F 57.9 °F 100% 29.65 in 6.0 mi WSW 3.5 mph - 0.16 in Rain , Thunderstorm Thunderstorms and Rain
3:00 AM 57.9 °F 57.9 °F 100% 29.66 in 9.0 mi Variable 3.5 mph - 0.00 in Rain Light Rain
3:07 AM 57.9 °F 57.9 °F 100% 29.66 in 10.0 mi WSW 3.5 mph - 0.01 in Rain Light Rain
3:53 AM 57.9 °F 57.9 °F 100% 29.61 in 6.0 mi SW 4.6 mph - 0.13 in Rain Rain
5:23 AM 57.9 °F 57.9 °F 100% 29.58 in 10.0 mi Calm Calm - 0.00 in   Mostly Cloudy
5:53 AM 57.9 °F 57.9 °F 100% 29.58 in 10.0 mi SW 5.8 mph - 0.00 in   Overcast
6:25 AM 59.0 °F 59.0 °F 100% 29.60 in 10.0 mi WSW 4.6 mph - N/A   Overcast
6:53 AM 59.0 °F 59.0 °F 100% 29.60 in 10.0 mi Variable 4.6 mph - N/A   Overcast
7:53 AM 59.0 °F 57.9 °F 96% 29.61 in 10.0 mi Variable 4.6 mph - N/A   Scattered Clouds
8:53 AM 59.0 °F 55.9 °F 90% 29.66 in 10.0 mi Variable 5.8 mph - N/A   Scattered Clouds
9:24 AM 57.0 °F 50.0 °F 77% 29.71 in 10.0 mi Variable 6.9 mph 19.6 mph N/A   Mostly Cloudy
9:33 AM 55.0 °F 45.0 °F 69% 29.72 in 10.0 mi Variable 6.9 mph 18.4 mph N/A   Scattered Clouds
9:53 AM 54.0 °F 43.0 °F 66% 29.71 in 10.0 mi NW 10.4 mph 20.7 mph N/A   Clear
10:53 AM 57.0 °F 42.1 °F 57% 29.73 in 10.0 mi NW 8.1 mph 16.1 mph N/A   Clear
11:53 AM 60.1 °F 42.1 °F 51% 29.73 in 10.0 mi West 6.9 mph - N/A   Clear
12:53 PM 63.0 °F 42.1 °F 46% 29.73 in 10.0 mi West 10.4 mph 17.3 mph N/A   Clear
1:53 PM 64.9 °F 43.0 °F 45% 29.71 in 10.0 mi WNW 10.4 mph - N/A   Clear
2:53 PM 66.0 °F 39.9 °F 38% 29.70 in 10.0 mi West 8.1 mph 17.3 mph N/A   Clear
3:53 PM 66.9 °F 37.0 °F 33% 29.72 in 10.0 mi West 9.2 mph 21.9 mph N/A   Clear
4:53 PM 66.0 °F 37.9 °F 36% 29.74 in 10.0 mi Variable 6.9 mph - N/A   Clear
5:53 PM 63.0 °F 37.9 °F 40% 29.75 in 10.0 mi WNW 4.6 mph - N/A   Clear
6:53 PM 60.1 °F 37.9 °F 44% 29.78 in 10.0 mi WNW 4.6 mph - N/A   Clear
7:53 PM 57.9 °F 37.9 °F 47% 29.82 in 10.0 mi Variable 4.6 mph - N/A   Clear
8:53 PM 55.9 °F 37.9 °F 51% 29.84 in 10.0 mi WSW 8.1 mph - N/A   Clear
9:53 PM 55.0 °F 37.9 °F 53% 29.87 in 10.0 mi WSW 8.1 mph - N/A   Clear
10:53 PM 54.0 °F 39.0 °F 57% 29.91 in 10.0 mi Variable 5.8 mph - N/A   Clear
11:53 PM 53.1 °F 36.0 °F 52% 29.91 in 10.0 mi Variable 3.5 mph - N/A   Clear